Temperature
16 16 16 16 16 16 16 16 16 15 15 15 15 15 15 15 15 15 15 15 15 15 15 15 15 15 15 15 15 15 15 15 15 15 15 15 15 15 15 15 15 15 15
16 16 16 16 16 16 15 15 15 15 15 15 15 15 15 15 15 15 15 15 15 15 14 14 15 15 14 14 14 14 14 14 14 14 14 14 14 14 14 15 15 15 15
16 16 16 16 16 15 15 15 15 15 15 15 15 15 15 15 15 15 15 14 14 14 14 14 14 14 14 14 14 14 14 14 14 14 14 14 14 14 14 14 14 14 14
16 16 16 15 15 15 15 15 15 15 15 15 15 14 14 14 14 14 14 14 14 14 14 14 14 14 14 14 14 14 14 14 14 14 14 14 14 14 14 14 14 14 14
16 16 15 15 15 15 15 15 15 15 15 15 14 14 14 14 14 14 14 14 14 14 14 14 14 14 14 14 14 14 14 14 14 14 14 14 14 14 14 14 14 14 14
15 15 15 15 15 15 15 15 15 15 15 15 14 14 14 14 14 14 14 14 14 14 14 14 14 14 14 13 13 13 14 14 13 13 13 13 13 13 13 13 13 13 13
15 15 15 15 15 15 15 15 15 15 15 14 14 14 14 14 14 14 14 13 13 13 13 13 13 13 13 13 13 13 13 13 13 13 13 13 13 13 13 13 13 13 13
15 15 15 15 15 15 15 15 15 14 14 14 14 14 13 13 13 13 13 13 13 13 13 13 13 13 13 13 13 13 13 13 13 13 13 13 13 13 13 13 13 13 13
15 15 15 15 15 15 15 15 14 14 14 14 14 14 13 13 13 13 13 13 13 13 13 13 13 13 13 13 13 13 13 13 13 13 13 13 13 13 13 13 13 13 13
15 15 15 15 15 14 14 14 14 14 14 14 14 14 13 13 13 12 13 13 13 13 13 13 13 13 13 13 13 13 13 13 13 13 13 13 13 13 12 12 12 12 12
15 15 15 14 14 14 14 14 14 14 14 14 14 13 13 13 13 12 12 13 13 13 12 12 13 13 13 13 13 13 13 13 13 13 13 13 12 12 12 12 12 12 12
15 14 14 14 14 14 14 14 14 14 14 14 13 13 13 13 13 13 12 12 12 13 12 12 12 13 13 13 13 13 13 13 13 12 12 12 12 12 12 12 12 12 12
14 14 14 14 14 14 14 14 13 13 13 13 13 13 13 13 13 13 12 12 12 12 12 12 12 12 12 12 13 12 13 12 12 12 12 12 12 12 12 12 12 12 12
14 14 14 14 14 13 13 13 13 13 13 13 13 13 13 12 12 12 12 12 12 12 12 12 12 12 12 12 12 12 12 12 12 12 12 12 12 12 12 12 12 12 12
14 14 13 13 13 13 13 13 13 13 13 13 13 12 12 12 12 12 12 12 12 11 11 12 12 12 12 12 12 12 12 12 12 12 12 12 12 12 12 12 12 12 12
14 13 13 13 13 13 13 13 13 13 12 12 12 12 12 12 12 12 12 12 12 11 11 12 12 12 12 12 12 12 12 12 12 12 12 12 12 12 12 12 12 12 11
13 13 13 12 13 13 12 12 12 12 12 12 12 12 12 12 12 12 12 12 12 11 11 12 12 12 12 12 12 12 12 12 12 12 12 11 11 11 11 11 11 11 11
13 12 12 12 12 12 12 12 12 12 12 12 12 11 12 11 11 11 11 11 11 11 11 11 11 11 11 11 11 11 11 11 11 11 11 11 11 11 11 11 11 11 11
12 12 12 12 12 12 12 12 12 12 11 11 11 11 11 11 11 11 11 11 11 11 11 11 11 11 11 11 11 11 11 11 11 11 11 11 11 11 11 11 11 11 11
12 12 12 11 11 11 11 11 11 11 11 11 11 11 11 11 11 11 11 11 11 11 11 11 11 11 11 11 10 11 11 11 11 11 11 11 10 10 11 10 10 11 11
12 11 11 11 11 11 11 11 11 11 11 11 11 11 11 10 10 10 10 10 10 10 10 10 10 10 10 10 10 10 10 10 10 10 10 10 10 10 10 10 10 10 10
11 11 11 11 11 11 11 10 10 10 10 10 10 10 10 10 10 10 10 10 10 10 10 10 10 10 10 10 10 10 10 10 10 10 10 10 10 10 10 10 10 10 10
11 10 10 10 10 10 10 10 10 10 10 10 10 10 10 10 10 10 10 10 10 9 9 9 9 9 9 10 10 9 9 9 9 9 9 9 10 10 10 10 10 10 10
10 10 10 10 10 10 10 10 9 9 9 9 9 9 9 9 9 9 9 9 9 9 9 9 9 9 9 9 9 9 9 9 9 9 9 9 9 9 9 9 9 9 9
9 9 9 9 9 9 9 9 9 9 9 9 9 9 9 9 9 9 9 9 9 9 9 9 9 9 9 9 9 9 9 8 8 8 8 8 8 8 9 9 9 9 9
9 9 9 9 9 9 9 8 8 8 8 8 8 8 8 8 8 8 8 8 8 9 9 9 9 9 9 9 8 8 8 8 8 8 8 8 8 8 8 8 8 8 8
Wind_Speed
2 2 2 2 3 4 3 3 3 4 4 5 6 7 6 7 8 8 8 11 11 10 11 11 10 9 10 10 10 9 9 8 9 8 8 9 9 8 9 8 8 7 6
3 2 2 2 2 3 3 3 4 3 3 4 4 5 6 6 7 8 8 9 11 10 10 10 10 9 9 10 9 9 9 8 8 8 8 8 8 8 8 8 7 7 8
4 3 2 2 2 4 5 5 5 4 4 4 4 4 4 5 5 6 7 7 8 10 10 9 9 9 9 9 8 8 9 9 8 7 7 6 6 6 6 7 7 8 8
5 4 2 2 2 4 3 3 3 4 4 3 3 3 3 3 4 5 6 6 6 7 9 9 8 8 7 7 7 7 7 7 8 8 8 7 6 6 6 6 6 7 7
5 4 2 2 3 3 2 2 3 2 3 3 3 3 2 2 2 4 4 5 5 6 6 7 8 7 7 6 6 7 7 8 8 7 7 6 6 6 6 6 6 6 6
5 4 2 2 3 2 2 2 3 2 2 2 3 3 2 2 2 2 2 3 4 4 5 5 6 6 7 7 7 7 7 7 7 7 6 6 5 5 5 5 5 5 5
5 4 2 2 2 2 2 2 2 3 2 2 3 3 4 3 3 1 1 2 2 3 3 4 4 4 4 5 5 6 5 6 6 6 6 6 6 6 6 5 6 5 6
4 4 3 2 2 3 3 2 2 2 1 2 2 2 2 4 3 2 1 1 1 2 2 2 3 3 3 4 4 5 4 4 4 4 5 5 5 5 5 5 5 5 5
3 3 3 3 2 2 2 1 2 3 1 1 2 3 2 1 2 3 2 1 2 1 0 1 2 2 2 2 2 3 3 3 2 3 3 3 3 4 4 4 3 3 4
3 3 3 3 2 2 2 1 2 2 3 1 0 1 2 3 2 1 3 2 2 1 1 0 1 2 2 2 1 1 2 2 1 1 1 1 1 2 2 2 2 2 3
2 3 3 3 2 2 2 2 2 2 2 2 1 1 1 1 2 2 1 3 3 3 2 1 1 2 3 3 2 1 1 1 2 1 1 0 0 1 1 1 1 2 2
1 2 2 2 2 1 1 2 2 2 1 2 1 1 2 2 1 1 1 2 2 3 2 2 1 2 3 3 4 3 2 1 1 1 1 1 1 0 0 0 1 1 1
0 1 0 1 1 1 1 2 2 1 1 2 2 1 1 2 2 2 2 1 2 2 2 2 2 2 3 4 4 4 4 3 2 1 2 2 2 1 1 1 1 0 0
2 2 1 1 1 1 1 2 1 0 1 1 1 1 1 1 1 2 2 2 0 2 2 3 3 3 3 4 6 5 5 5 4 4 3 3 2 2 2 1 2 1 1
1 1 1 1 1 1 1 2 1 1 1 0 1 1 1 1 1 2 2 3 3 1 3 3 3 3 4 5 6 5 5 7 7 6 5 4 3 3 3 2 2 2 2
1 1 2 2 1 1 1 2 1 1 1 0 0 0 1 1 1 1 2 2 2 3 3 4 4 4 3 4 6 6 7 7 8 7 6 6 5 4 4 3 2 2 3
2 2 2 2 2 2 2 2 2 1 1 0 0 0 2 1 1 1 1 1 1 2 3 4 3 3 3 3 3 4 6 6 6 7 7 7 6 6 5 4 4 3 3
2 2 2 2 2 2 2 2 3 2 2 2 2 1 2 1 1 2 1 2 2 2 2 3 3 2 3 3 3 3 3 4 5 7 7 7 7 6 6 5 5 4 4
2 1 1 1 2 2 3 3 3 3 3 3 3 3 3 2 2 2 2 2 2 2 2 2 3 2 2 1 1 2 2 1 3 4 5 6 6 6 6 6 6 6 5
2 2 2 2 2 2 2 3 2 2 2 2 3 3 3 3 4 4 3 3 2 2 2 2 2 2 2 1 0 1 2 2 2 2 3 4 5 6 6 7 7 7 7
2 2 2 2 2 1 2 2 3 2 2 2 3 3 4 4 4 4 3 3 3 2 2 2 2 2 2 1 2 2 2 2 2 1 1 2 2 3 4 5 6 7 8
2 2 2 2 2 2 3 3 3 2 3 3 3 4 4 4 4 5 5 4 3 3 4 3 3 4 4 4 2 2 2 1 2 2 1 3 1 2 3 4 5 6 6
2 3 3 2 3 3 4 4 4 3 3 3 4 4 4 4 3 4 5 5 5 6 5 5 5 6 5 5 3 3 3 3 4 2 2 3 2 3 4 5 5 5 5
3 3 3 3 3 4 4 4 5 4 4 4 5 5 4 5 4 3 3 3 4 4 6 5 6 7 6 5 6 5 5 3 2 1 2 2 2 3 3 3 5 5 5
3 3 3 3 3 4 5 4 4 2 3 4 4 3 4 4 5 3 2 3 3 4 5 5 5 5 6 5 3 2 2 2 2 3 2 2 2 2 2 2 4 5 4
3 3 3 3 3 4 5 5 4 2 3 3 3 3 4 5 5 3 3 3 4 4 3 2 3 4 3 3 3 4 4 3 2 3 3 3 2 1 1 2 2 2 3
Wind_Direction
91 80 56 50 48 53 56 54 59 63 66 70 80 85 79 73 69 65 65 66 67 70 74 77 77 78 78 76 73 72 75 79 78 79 77 76 74 70 69 66 65 65 66
113 99 78 62 55 61 65 73 75 79 75 79 73 79 82 80 76 69 64 60 63 67 70 73 74 74 79 78 75 74 74 75 79 79 80 76 72 70 69 67 65 66 75
119 112 88 54 53 71 70 67 64 72 75 76 70 73 81 83 83 74 66 62 60 62 67 71 72 71 73 75 74 73 73 72 72 73 75 74 72 71 70 70 67 74 80
113 104 85 58 67 81 76 69 61 62 64 70 69 61 70 83 82 82 78 73 68 64 63 66 72 69 70 75 74 75 72 72 71 68 66 67 69 71 70 71 77 79 85
105 105 89 76 82 77 66 79 72 84 76 65 73 62 55 69 79 88 80 77 76 74 69 63 66 65 63 71 74 75 73 70 67 65 65 63 66 70 69 74 78 81 89
99 103 93 70 86 81 60 69 87 76 90 79 75 55 29 28 60 76 80 85 83 80 78 73 67 60 58 60 71 74 72 68 66 64 65 63 67 74 77 77 76 78 88
102 103 80 69 73 87 88 85 91 86 61 71 70 36 11 21 42 41 59 75 79 89 88 86 85 72 57 55 62 69 69 70 67 64 62 63 67 77 77 78 78 81 87
102 101 99 88 79 85 70 64 91 90 66 80 105 89 23 357 1 18 25 47 35 87 91 92 97 91 77 63 48 51 54 65 66 67 63 65 70 77 78 74 74 77 85
90 93 97 100 88 88 101 98 110 112 127 18 91 119 127 221 308 335 345 357 350 15 26 118 126 120 107 87 60 40 40 52 66 77 72 67 68 75 81 72 63 74 89
77 87 94 97 100 91 97 101 100 116 132 141 340 45 133 154 147 307 323 331 324 312 303 296 158 161 161 138 116 33 27 30 29 48 67 70 81 75 73 72 64 87 100
35 62 88 94 96 98 103 97 82 96 128 145 148 115 76 72 100 144 271 313 324 304 293 264 207 183 187 180 190 237 334 355 345 327 332 17 49 70 64 66 75 87 102
15 27 79 84 92 97 107 116 104 106 127 136 135 129 137 143 166 147 196 258 287 297 296 275 230 202 204 206 217 229 235 264 307 318 308 299 296 323 349 62 78 86 99
253 258 114 112 104 96 122 115 109 109 133 150 160 172 178 185 171 160 158 218 275 294 307 294 257 224 222 216 221 225 226 238 253 271 273 265 266 258 279 233 202 204 248
221 223 198 176 139 115 117 115 112 122 101 147 179 167 181 230 179 166 166 157 323 310 303 277 286 244 239 222 225 223 228 236 242 251 250 252 245 243 250 232 245 246 258
220 217 214 199 195 171 158 143 133 134 110 139 226 190 186 237 208 192 172 164 164 226 275 265 269 262 248 232 231 222 232 240 239 241 241 238 231 235 242 237 253 253 259
218 212 236 234 215 199 188 167 168 174 120 319 271 229 238 249 241 220 191 182 172 184 236 259 256 262 246 248 245 230 235 245 242 240 240 236 229 229 237 236 246 251 253
213 205 224 230 220 220 205 175 197 183 163 214 301 253 256 238 218 233 195 180 185 171 236 277 274 271 242 251 249 234 235 233 241 243 241 240 237 232 232 239 243 247 248
223 218 214 217 225 227 209 192 217 217 200 211 235 241 268 252 230 230 201 207 213 203 204 263 284 279 256 243 237 238 238 238 237 247 240 239 238 235 234 239 241 246 249
222 232 216 210 225 222 209 206 207 220 221 224 223 220 246 244 241 247 228 222 229 240 213 231 263 272 271 273 280 272 258 252 245 253 248 246 243 240 240 242 243 244 244
210 225 230 222 226 221 211 208 205 206 231 244 237 230 232 236 237 234 230 229 231 235 238 245 261 270 271 270 195 261 294 286 276 260 255 250 250 252 248 249 248 244 242
230 223 228 241 248 234 229 210 205 210 223 251 258 251 248 254 265 249 238 223 219 224 233 242 255 270 266 275 248 233 238 278 280 260 254 256 246 257 258 258 256 249 242
278 253 246 247 255 267 270 234 213 214 231 239 255 263 263 252 274 277 262 237 209 211 223 228 243 244 248 240 240 230 221 227 272 258 214 270 230 256 255 248 256 245 239
285 274 259 256 259 268 264 248 232 223 230 239 247 257 273 277 274 264 262 263 255 248 230 217 229 239 238 229 216 227 222 222 237 234 205 254 248 256 251 257 256 243 236
265 265 258 251 255 276 279 268 250 237 235 237 237 237 247 261 265 268 267 265 264 264 250 235 229 238 242 228 213 214 216 225 264 252 192 228 240 246 264 258 260 245 244
257 257 252 250 253 277 289 280 269 243 244 251 250 247 248 253 264 278 274 261 274 283 288 271 265 262 264 251 210 167 180 194 255 258 220 208 234 253 269 265 259 250 242
262 266 270 264 251 261 280 287 284 244 246 258 261 259 265 266 270 265 247 240 250 263 275 307 311 314 295 269 231 202 201 209 227 243 223 197 206 176 273 269 257 255 244
Height
1534 1534 1534 1533 1533 1532 1532 1531 1530 1530 1529 1528 1528 1527 1527 1526 1526 1525 1525 1525 1524 1523 1523 1522 1522 1521 1521 1521 1521 1520 1520 1520 1519 1519 1519 1519 1519 1518 1518 1518 1518 1518 1517
1535 1534 1534 1534 1534 1533 1533 1532 1532 1531 1530 1530 1529 1529 1528 1528 1527 1527 1526 1526 1525 1525 1524 1523 1523 1523 1522 1522 1521 1521 1521 1520 1520 1520 1519 1519 1519 1519 1519 1519 1519 1518 1518
1535 1535 1535 1534 1534 1534 1534 1533 1533 1532 1531 1531 1530 1530 1530 1529 1529 1528 1527 1526 1526 1525 1525 1524 1524 1523 1523 1522 1522 1522 1521 1521 1521 1520 1520 1520 1520 1520 1520 1520 1519 1519 1519
1535 1535 1535 1535 1535 1534 1534 1534 1533 1533 1532 1532 1531 1531 1531 1530 1530 1529 1528 1528 1527 1526 1526 1525 1524 1524 1523 1523 1523 1522 1522 1521 1521 1521 1521 1521 1521 1521 1521 1520 1520 1520 1520
1535 1535 1535 1535 1535 1535 1534 1534 1533 1533 1533 1532 1532 1532 1532 1531 1531 1530 1530 1529 1528 1528 1527 1525 1525 1525 1524 1524 1523 1523 1522 1522 1521 1521 1521 1521 1521 1521 1521 1521 1521 1521 1521
1535 1535 1535 1535 1535 1534 1534 1534 1533 1533 1533 1533 1532 1532 1532 1532 1532 1531 1531 1530 1529 1529 1528 1527 1526 1525 1525 1524 1523 1523 1522 1522 1522 1522 1522 1522 1521 1521 1521 1521 1521 1521 1521
1536 1536 1535 1535 1534 1534 1534 1534 1533 1533 1533 1533 1532 1532 1533 1533 1532 1532 1531 1531 1530 1529 1529 1528 1527 1526 1525 1525 1524 1524 1523 1523 1522 1522 1522 1522 1522 1521 1521 1521 1521 1521 1521
1536 1536 1535 1534 1534 1534 1534 1533 1533 1533 1532 1532 1532 1532 1532 1534 1533 1532 1532 1531 1531 1530 1529 1528 1527 1527 1526 1525 1525 1524 1524 1523 1523 1522 1522 1522 1522 1521 1521 1521 1521 1521 1521
1536 1535 1535 1534 1534 1533 1533 1533 1532 1532 1532 1532 1532 1533 1532 1532 1532 1532 1532 1531 1531 1530 1529 1529 1528 1527 1526 1526 1525 1525 1524 1524 1523 1523 1522 1522 1522 1521 1521 1521 1521 1521 1521
1536 1535 1535 1534 1533 1533 1532 1532 1532 1531 1531 1531 1532 1532 1532 1532 1532 1531 1531 1531 1530 1530 1529 1529 1528 1527 1526 1526 1525 1525 1524 1524 1523 1523 1522 1521 1521 1521 1521 1520 1521 1520 1521
1535 1534 1534 1533 1533 1532 1532 1531 1531 1531 1530 1530 1530 1531 1531 1531 1530 1530 1529 1529 1529 1529 1528 1528 1527 1527 1526 1525 1525 1524 1524 1523 1523 1522 1522 1521 1521 1520 1520 1520 1520 1520 1520
1534 1533 1533 1532 1532 1531 1531 1530 1530 1530 1529 1529 1529 1529 1529 1529 1529 1529 1528 1527 1527 1527 1527 1527 1526 1526 1525 1524 1524 1523 1523 1522 1522 1521 1521 1520 1520 1520 1520 1519 1519 1519 1519
1532 1531 1531 1531 1530 1530 1530 1529 1529 1528 1528 1528 1528 1528 1528 1528 1528 1528 1527 1526 1526 1525 1525 1525 1525 1524 1524 1523 1523 1522 1522 1521 1521 1520 1520 1519 1519 1519 1518 1518 1518 1518 1518
1530 1530 1529 1529 1529 1528 1528 1528 1527 1527 1526 1526 1526 1526 1526 1526 1526 1526 1526 1525 1524 1524 1523 1523 1523 1522 1522 1522 1521 1521 1520 1520 1519 1519 1518 1518 1518 1517 1517 1517 1517 1517 1517
1528 1527 1527 1527 1526 1526 1526 1526 1525 1525 1525 1524 1524 1524 1524 1524 1524 1524 1524 1524 1524 1522 1521 1521 1521 1520 1520 1520 1519 1519 1519 1518 1517 1517 1517 1516 1516 1516 1516 1515 1515 1516 1516
1525 1524 1524 1524 1524 1524 1523 1523 1523 1523 1523 1522 1522 1522 1521 1521 1521 1521 1521 1521 1521 1521 1519 1519 1518 1518 1518 1517 1517 1517 1516 1516 1515 1515 1515 1515 1515 1514 1514 1514 1514 1514 1514
1522 1521 1521 1521 1521 1520 1520 1520 1520 1520 1520 1520 1519 1519 1519 1519 1518 1518 1518 1518 1518 1518 1517 1516 1516 1515 1515 1515 1514 1514 1514 1514 1513 1513 1513 1512 1512 1512 1512 1512 1512 1512 1512
1519 1518 1518 1518 1517 1517 1517 1517 1517 1517 1517 1516 1516 1516 1515 1515 1515 1515 1515 1515 1515 1515 1514 1513 1512 1512 1512 1512 1511 1511 1511 1511 1511 1511 1510 1510 1510 1510 1510 1510 1510 1510 1510
1516 1515 1515 1514 1514 1514 1514 1514 1514 1514 1513 1513 1513 1512 1512 1512 1512 1512 1511 1511 1511 1512 1511 1510 1509 1509 1509 1509 1508 1508 1508 1508 1508 1508 1508 1508 1507 1508 1507 1508 1508 1508 1508
1512 1512 1511 1511 1511 1511 1511 1511 1511 1510 1510 1510 1510 1509 1508 1508 1508 1508 1508 1508 1508 1508 1507 1507 1506 1505 1505 1505 1505 1504 1504 1505 1505 1505 1505 1505 1505 1505 1505 1505 1505 1505 1505
1509 1508 1508 1507 1507 1507 1507 1507 1507 1507 1506 1506 1505 1505 1505 1505 1505 1505 1505 1504 1504 1504 1503 1503 1502 1502 1501 1501 1501 1501 1501 1501 1501 1502 1502 1502 1502 1502 1502 1502 1502 1502 1503
1505 1505 1504 1504 1503 1503 1503 1503 1503 1503 1502 1501 1501 1501 1501 1501 1501 1501 1501 1501 1501 1500 1500 1499 1498 1498 1497 1498 1498 1498 1497 1497 1497 1498 1498 1498 1498 1498 1498 1498 1499 1499 1499
1502 1501 1500 1500 1499 1499 1499 1499 1499 1498 1498 1497 1497 1497 1496 1496 1496 1496 1496 1497 1497 1497 1497 1496 1495 1494 1494 1494 1494 1494 1494 1493 1493 1494 1494 1493 1494 1494 1495 1495 1495 1495 1496
1498 1497 1496 1496 1496 1495 1495 1495 1495 1494 1493 1493 1492 1492 1492 1492 1492 1492 1491 1491 1491 1491 1491 1491 1491 1491 1491 1490 1490 1490 1490 1490 1490 1490 1491 1490 1490 1490 1490 1491 1491 1492 1492
1493 1493 1492 1492 1491 1491 1491 1491 1490 1489 1488 1488 1488 1488 1488 1488 1488 1488 1487 1486 1486 1486 1486 1487 1487 1486 1486 1486 1486 1486 1486 1485 1485 1485 1486 1486 1486 1486 1486 1486 1487 1488 1488
1490 1489 1489 1488 1488 1487 1487 1486 1486 1485 1484 1483 1483 1483 1483 1483 1483 1483 1482 1481 1481 1480 1481 1481 1481 1482 1482 1482 1482 1482 1481 1481 1480 1481 1481 1482 1482 1482 1482 1482 1483 1484 1484